Oxnard, CA

11:11 PM PST on January 17, 2018 (GMT -0800)
Oxnard

Weather History for KOXR - April, 2014

Change the Weather History Date:

Thursday, April 17, 2014

  Actual Average Record
Temperature  
Mean Temperature 59 °F -  
Max Temperature 66 °F 66 °F 90 °F (2016)
Min Temperature 54 °F 48 °F 40 °F (1967)
Degree Days  
Heating Degree Days 6    
Growing Degree Days 9 (Base 50)    
Moisture  
Dew Point 53 °F    
Average Humidity 81    
Maximum Humidity 94    
Minimum Humidity 63    
Precipitation  
Precipitation 0.00 in - - ()
Sea Level Pressure  
Sea Level Pressure 29.87 in    
Wind  
Wind Speed 4 mph (SE)    
Max Wind Speed 13 mph    
Max Gust Speed 18 mph    
Visibility 6 miles    
Events      
Averages and records for this station are not official NWS values.
T = Trace of Precipitation, MM = Missing Value Source: NWS Daily Summary

Daily Weather History Graph

Daily Weather History Graph

Search for Another Location

Airport or City:

Trip Planner

Search our weather history database for the weather conditions in past years. The results will help you decide how hot, cold, wet, or windy it might be!

Date:

Astronomy

Apr. 17, 2014 Rise Set
Actual Time 6:23 AM PDT 7:30 PM PDT
Civil Twilight 5:57 AM PDT 7:56 PM PDT
Nautical Twilight 5:26 AM PDT 8:26 PM PDT
Astronomical Twilight 4:54 AM PDT 8:58 PM PDT
Moon 10:15 PM PDT (4/17) 8:03 AM PDT (4/17)
Length of Visible Light 13h 58m
Length of Day
13h 06m
Waning Gibbous, 93% of the Moon is Illuminated
Apr 17
Waning Gibbous
Apr 22
Last Quarter
Apr 28
New
May 6
First Quarter
May 14
Full

Hourly Weather History & Observations

Time (PDT) Temp. Dew Point Humidity Pressure Visibility Wind Dir Wind Speed Gust Speed Precip Events Conditions
12:51 AM 57.0 °F 53.1 °F 87% 29.85 in 6.0 mi Calm Calm - N/A   Clear
1:48 AM 55.4 °F 51.8 °F 88% 29.84 in 6.0 mi SE 4.6 mph - N/A   Mostly Cloudy
2:03 AM 55.4 °F 51.8 °F 88% 29.84 in 6.0 mi ESE 4.6 mph - N/A   Overcast
2:51 AM 57.9 °F 54.0 °F 87% 29.84 in 5.0 mi SSE 4.6 mph - N/A   Overcast
3:27 AM 57.2 °F 53.6 °F 88% 29.85 in 6.0 mi Variable 3.5 mph - N/A   Overcast
3:51 AM 57.9 °F 54.0 °F 87% 29.85 in 6.0 mi Calm Calm - N/A   Overcast
4:24 AM 57.2 °F 53.6 °F 88% 29.86 in 5.0 mi Calm Calm - N/A   Overcast
4:48 AM 55.4 °F 51.8 °F 88% 29.86 in 5.0 mi North - - N/A   Scattered Clouds
4:51 AM 55.0 °F 52.0 °F 89% 29.85 in 5.0 mi North - - N/A   Partly Cloudy
5:04 AM 55.4 °F 53.6 °F 94% 29.85 in 5.0 mi ENE 3.5 mph - N/A   Mostly Cloudy
5:16 AM 55.4 °F 53.6 °F 94% 29.85 in 5.0 mi NE 3.5 mph - N/A   Mostly Cloudy
5:49 AM 55.4 °F 51.8 °F 88% 29.86 in 5.0 mi ENE 4.6 mph - N/A   Overcast
5:51 AM 55.9 °F 52.0 °F 87% 29.86 in 5.0 mi ENE 4.6 mph - N/A   Overcast
6:23 AM 55.4 °F 51.8 °F 88% 29.85 in 5.0 mi ENE 4.6 mph - N/A   Mostly Cloudy
6:51 AM 54.0 °F 51.1 °F 90% 29.86 in 4.0 mi ENE 5.8 mph - N/A   Mostly Cloudy
7:51 AM 55.9 °F 52.0 °F 87% 29.87 in 4.0 mi NE 4.6 mph - N/A   Clear
8:51 AM 60.1 °F 53.1 °F 78% 29.89 in 5.0 mi Calm Calm - N/A   Haze
9:08 AM 60.8 °F 53.6 °F 77% 29.89 in 6.0 mi SE 5.8 mph - N/A   Haze
10:51 AM 64.0 °F 53.1 °F 67% 29.91 in 7.0 mi SSE 12.7 mph 18.4 mph N/A   Mostly Cloudy
11:51 AM 63.0 °F 52.0 °F 67% 29.91 in 8.0 mi SSW 10.4 mph 17.3 mph N/A   Clear
12:51 PM 64.9 °F 52.0 °F 63% 29.90 in 8.0 mi SSW 9.2 mph - N/A   Clear
1:51 PM 64.0 °F 52.0 °F 65% 29.89 in 8.0 mi SSW 9.2 mph - N/A   Clear
2:51 PM 64.0 °F 52.0 °F 65% 29.87 in 9.0 mi WSW 10.4 mph - N/A   Clear
3:51 PM 63.0 °F 54.0 °F 72% 29.87 in 8.0 mi WSW 10.4 mph - N/A   Mostly Cloudy
4:51 PM 62.1 °F 54.0 °F 75% 29.86 in 8.0 mi West 4.6 mph - N/A   Mostly Cloudy
5:21 PM 62.6 °F 53.6 °F 72% 29.84 in 8.0 mi NW 5.8 mph - N/A   Scattered Clouds
5:51 PM 64.0 °F 53.1 °F 67% 29.85 in 8.0 mi SW 4.6 mph - N/A   Partly Cloudy
6:51 PM 61.0 °F 52.0 °F 72% 29.85 in 8.0 mi North - - N/A   Clear
8:19 PM 60.8 °F 53.6 °F 77% 29.89 in 8.0 mi SW 4.6 mph - N/A   Overcast
9:51 PM 59.0 °F 54.0 °F 83% 29.91 in 7.0 mi NW 4.6 mph - N/A   Overcast
10:51 PM 59.0 °F 54.0 °F 83% 29.90 in 7.0 mi North 3.5 mph - N/A   Overcast
11:51 PM 60.1 °F 54.0 °F 80% 29.89 in 7.0 mi Calm Calm - N/A   Overcast